Temperature
16 16 16 16 17 17 17 17 17 17 17 17 17 17 17 17 16 16 16 16 16 16 16 16 16 16 16 16 16 15 15 15 15 15 15 15 15 15 15 15 15 15 15
17 16 16 16 16 17 17 17 17 17 17 17 17 17 16 16 16 16 16 16 16 16 16 16 16 16 16 16 15 15 15 15 15 15 15 15 15 15 15 15 15 15 15
16 16 16 16 16 16 16 16 16 16 16 16 16 16 16 16 16 16 16 16 16 16 16 16 16 16 16 16 15 15 15 15 15 15 15 15 15 15 15 15 15 15 15
16 16 16 16 16 16 16 16 16 16 16 16 16 16 16 16 16 16 15 15 15 15 15 15 15 15 15 15 15 15 15 15 15 15 15 15 14 14 15 15 15 15 15
15 15 16 16 16 16 16 16 16 16 16 16 16 16 15 15 15 15 15 15 15 15 15 15 15 15 15 15 15 15 15 15 14 14 14 14 14 14 14 14 15 15 15
15 15 15 15 15 15 16 16 16 16 16 16 16 15 15 15 15 15 15 15 15 15 15 15 15 15 15 15 15 15 14 14 14 14 14 14 14 14 14 14 14 15 14
15 15 15 15 15 15 15 15 15 15 15 15 15 15 15 15 15 15 15 15 15 15 15 15 15 15 15 14 14 14 14 14 14 14 14 14 14 14 14 14 14 14 14
14 14 14 14 15 15 15 15 15 15 15 15 15 15 15 15 15 15 14 14 14 14 15 14 14 14 14 14 14 14 14 14 14 14 14 14 14 14 14 14 14 14 14
14 14 14 14 14 14 15 15 15 15 15 15 15 15 14 14 14 14 14 14 14 14 14 14 14 14 14 14 14 14 13 13 13 13 13 13 14 14 14 14 14 14 14
14 14 14 14 14 14 14 14 14 14 14 14 14 14 14 14 14 14 14 14 14 14 14 14 14 14 14 14 13 13 13 13 13 13 13 13 13 13 13 13 13 13 13
13 13 13 13 14 14 14 14 14 14 14 14 14 14 14 14 14 14 14 14 14 14 14 14 14 14 14 13 13 13 13 13 13 13 13 13 13 13 13 13 13 13 13
13 13 13 13 13 13 13 14 14 14 14 14 14 14 14 14 14 14 14 14 14 14 13 13 14 13 13 13 13 13 13 13 13 13 13 13 13 13 13 13 13 12 12
12 12 12 13 13 13 13 13 13 13 13 13 13 13 13 13 13 13 13 13 13 13 13 13 13 13 13 13 13 13 13 13 13 13 12 12 12 12 12 12 12 12 12
12 12 12 12 12 12 13 13 13 13 13 13 13 13 13 13 13 13 13 13 13 13 13 13 13 13 13 13 13 13 13 12 12 12 12 12 12 12 12 12 11 11 11
12 12 12 12 12 12 12 12 12 12 12 13 13 12 12 13 13 13 13 13 13 13 13 13 13 12 12 12 12 12 12 12 12 12 12 12 12 12 12 11 11 11 11
11 11 12 12 12 12 12 12 12 12 12 12 12 12 12 12 12 12 12 12 12 12 12 12 12 12 12 12 12 12 12 12 12 11 11 11 11 11 11 11 11 11 10
11 11 11 11 11 11 11 11 11 12 12 12 12 12 12 12 12 12 12 12 12 12 12 12 12 12 12 12 12 11 11 11 11 11 11 11 11 11 11 11 10 10 10
11 11 11 11 11 11 11 11 11 11 11 11 11 11 11 11 11 12 12 12 12 12 12 12 12 12 11 11 11 11 11 11 11 11 10 10 10 10 10 10 10 10 10
11 11 11 11 11 11 11 11 11 11 11 11 11 11 11 11 11 11 11 11 11 11 11 11 11 11 11 11 11 10 10 10 10 10 10 10 10 10 10 10 9 9 9
10 10 10 10 10 10 10 10 10 10 10 10 10 10 10 11 11 11 11 11 11 11 11 11 11 11 10 10 10 10 10 10 9 9 9 9 9 9 9 9 9 9 9
10 10 10 10 10 10 10 10 10 10 10 10 10 10 10 10 10 10 11 10 11 11 10 10 10 10 10 10 10 9 9 9 9 9 9 9 9 9 8 8 8 8 8
10 10 10 9 9 10 10 9 9 9 9 9 10 10 10 10 10 10 10 10 10 10 10 10 10 9 9 9 9 9 8 8 8 8 8 8 8 8 8 8 8 8 8
10 9 9 9 9 9 9 9 9 9 9 9 9 9 9 9 9 9 9 9 9 9 9 9 9 9 9 9 8 8 8 8 7 8 8 8 7 7 7 7 7 7 7
9 9 9 9 9 9 9 9 9 9 9 9 9 9 9 9 9 9 9 9 9 9 9 9 8 8 8 8 8 8 7 7 7 6 7 7 7 7 7 7 7 7 7
9 9 9 9 8 8 8 8 8 8 8 8 8 8 8 8 8 8 8 8 8 8 8 8 8 8 8 8 7 7 7 7 7 6 6 6 7 6 6 6 6 6 6
8 8 8 8 8 8 8 8 8 8 8 8 8 8 8 8 8 8 8 8 8 8 8 8 7 7 7 7 7 7 6 6 6 6 5 6 6 6 6 6 5 5 5
Wind_Speed
5 8 13 13 13 14 13 13 13 12 12 11 11 11 11 11 11 11 11 10 10 10 9 9 8 8 8 8 9 8 8 8 9 8 8 7 7 7 7 7 7 7 7
8 11 14 13 13 13 13 13 12 12 11 11 11 11 10 10 10 10 10 10 9 9 8 8 8 8 8 8 7 7 7 8 7 7 7 6 5 5 6 6 6 5 6
9 11 13 13 13 13 13 12 12 12 11 10 10 10 10 10 9 9 9 9 9 8 8 7 7 7 7 7 6 6 6 6 6 5 4 3 3 3 4 4 4 5 4
10 11 12 13 13 13 12 12 12 11 11 10 10 10 10 9 9 9 9 8 8 8 7 7 7 7 6 6 5 5 5 5 5 5 3 2 1 2 2 3 3 3 3
8 9 12 13 12 12 12 11 11 10 10 10 10 9 9 9 8 8 7 7 7 7 7 6 6 6 5 4 4 4 4 5 5 5 3 2 1 1 1 2 2 2 1
6 8 11 13 12 12 11 11 10 10 9 9 9 9 8 8 8 7 7 6 6 6 6 5 5 4 4 3 3 3 3 4 5 4 3 3 1 1 1 2 1 0 0
6 7 9 11 11 11 11 10 10 9 9 9 9 8 8 8 8 7 6 6 6 5 5 4 4 4 3 2 2 2 3 4 4 3 2 2 1 0 1 2 2 2 2
7 7 8 10 10 10 10 10 9 9 8 8 8 8 8 7 7 7 6 6 5 5 5 4 3 3 2 2 2 3 3 3 3 2 2 3 1 0 0 1 1 1 2
7 7 6 7 9 10 10 9 9 8 8 8 8 8 7 7 7 6 6 6 5 5 4 3 3 2 2 2 3 3 3 4 4 2 2 2 1 1 1 1 0 1 2
5 5 5 6 6 7 8 9 9 9 8 7 7 6 6 6 6 6 5 5 4 4 3 3 2 2 2 3 3 3 3 4 4 3 2 1 1 1 1 1 0 1 1
4 4 4 4 5 5 7 8 9 8 7 7 6 6 6 5 5 5 4 4 3 3 3 3 2 2 3 3 4 4 4 3 3 2 2 2 1 1 1 1 1 1 2
4 4 3 4 5 5 5 6 6 6 6 6 6 6 6 5 4 4 4 4 3 3 2 2 3 4 4 4 4 4 4 3 2 2 2 2 1 1 2 2 2 1 2
5 5 4 4 5 5 4 4 4 5 5 6 7 6 6 6 5 5 4 4 3 3 3 3 4 4 4 3 3 3 3 3 2 2 2 2 2 2 2 2 2 2 2
5 5 4 4 4 4 5 3 5 4 4 4 5 6 6 4 3 3 3 2 2 2 2 3 3 3 3 3 3 3 3 2 2 2 2 2 2 2 2 2 3 3 3
5 5 5 4 4 4 4 3 4 4 4 5 5 5 5 4 2 2 2 2 2 2 2 2 2 2 3 3 3 3 2 2 2 2 2 2 2 2 2 3 4 4 4
5 5 5 5 4 5 4 3 3 4 5 5 4 4 5 5 3 2 2 2 2 2 2 2 1 1 1 2 2 2 2 2 2 3 2 2 3 3 3 3 4 4 5
5 5 4 4 4 5 5 3 4 5 5 4 4 5 5 4 3 3 2 1 2 2 2 2 3 2 1 2 2 2 2 2 2 2 2 2 3 3 4 4 5 5 6
5 5 4 4 4 5 5 4 3 5 5 4 4 4 4 4 4 3 2 1 2 2 2 1 1 2 1 1 1 1 1 1 2 2 3 3 3 4 4 5 5 6 6
5 5 5 4 4 4 5 4 3 4 4 4 4 4 4 4 4 4 2 1 2 2 2 1 1 1 1 1 1 1 1 1 0 2 3 3 4 4 4 4 5 6 7
4 5 5 4 4 5 4 4 3 3 3 3 3 3 3 4 4 3 2 2 3 2 2 1 2 2 1 1 1 1 1 1 1 1 1 3 3 3 4 4 4 4 6
4 4 4 5 4 4 3 3 3 2 2 2 2 3 3 3 3 3 2 2 2 1 1 1 1 1 2 2 2 2 3 2 1 1 1 2 2 3 3 3 3 4 4
4 4 4 4 4 4 3 3 2 2 2 1 1 2 3 3 2 2 2 1 1 1 2 1 1 1 1 2 1 1 1 2 2 2 1 1 1 2 2 3 2 3 3
4 5 4 4 4 4 4 3 3 3 2 2 1 1 2 2 2 2 2 1 1 1 1 0 1 2 1 0 1 2 1 2 2 2 1 1 1 1 1 2 2 2 3
4 4 4 4 4 3 4 4 4 3 2 2 1 1 1 2 2 2 2 2 2 1 1 0 0 1 2 1 0 0 1 2 1 2 2 2 2 2 2 2 2 3 3
4 4 4 4 3 3 4 4 4 3 2 1 1 1 1 1 1 1 1 2 2 1 1 1 1 0 1 2 2 1 1 0 1 2 3 3 3 3 3 2 2 3 3
3 3 3 4 3 3 3 3 4 4 3 2 1 1 1 0 0 0 1 1 1 1 0 0 0 0 1 1 1 1 2 1 1 2 3 4 4 4 3 3 2 2 3
Wind_Direction
169 165 156 149 141 136 132 127 121 116 113 111 109 107 107 105 105 105 107 106 103 100 98 94 91 86 81 78 77 78 76 77 76 76 76 77 79 84 89 88 87 84 85
156 156 152 149 143 139 135 131 126 121 117 114 115 113 111 110 110 109 108 106 103 100 96 93 91 87 81 79 75 74 73 69 68 69 67 68 75 81 89 95 94 92 90
136 144 145 144 142 139 135 132 128 126 124 120 119 119 117 115 112 111 110 109 106 101 97 92 89 86 82 79 73 68 66 62 54 55 58 59 70 83 88 101 104 99 93
133 138 142 140 139 137 135 133 131 130 129 125 122 122 122 120 117 113 112 111 109 105 99 94 89 85 81 77 70 63 57 44 34 31 43 35 43 101 100 102 101 101 94
120 131 141 140 139 138 135 133 134 133 132 129 127 124 125 125 122 118 114 112 113 109 103 96 91 88 81 77 67 59 51 38 27 29 33 16 3 140 109 113 107 98 97
111 121 137 141 141 141 138 136 134 135 136 135 131 128 127 127 125 121 117 116 116 114 110 102 95 92 85 76 63 50 37 26 24 29 31 13 4 136 95 103 80 74 151
112 116 131 140 139 139 140 138 135 135 140 139 137 135 132 127 127 120 118 118 117 117 114 107 100 93 84 67 44 31 23 19 27 26 16 351 339 142 88 80 60 43 37
121 116 123 135 140 138 139 138 137 136 139 143 141 140 135 128 125 125 118 116 114 115 114 108 104 96 80 49 21 13 13 17 21 12 332 326 323 346 26 39 26 9 9
120 115 114 128 135 141 141 140 137 137 136 136 139 139 135 131 125 123 121 121 117 111 109 102 92 81 52 19 9 8 17 19 23 3 329 307 319 354 15 3 3 346 339
114 116 118 121 122 134 141 141 138 135 131 127 126 133 132 130 127 121 123 126 120 113 107 101 80 56 22 7 8 12 17 14 19 7 338 311 324 333 332 7 359 355 355
121 119 125 128 124 134 146 144 138 138 134 124 117 120 120 119 120 117 117 126 127 115 98 74 49 36 24 13 16 24 26 22 21 356 332 335 344 339 357 24 59 51 21
153 153 143 137 145 146 151 144 139 140 134 118 112 109 106 102 109 116 112 110 103 92 80 50 33 24 24 18 24 31 28 21 28 359 341 357 354 12 47 49 45 32 11
173 166 159 150 149 143 136 147 136 131 125 117 111 104 101 91 85 87 84 75 72 68 48 30 27 24 22 26 28 32 33 41 43 19 357 14 17 28 37 36 20 5 351
169 168 161 153 141 142 133 140 137 130 125 118 118 114 108 94 78 73 68 59 54 49 40 27 18 18 27 32 40 43 39 42 42 31 5 20 25 18 14 5 348 338 328
170 168 163 157 144 140 128 134 134 134 134 129 125 123 121 115 105 82 75 59 45 45 41 25 17 24 27 25 35 53 37 30 39 38 33 38 30 19 4 350 346 339 332
172 168 164 160 151 141 129 136 148 135 131 126 125 127 125 122 123 114 87 65 34 21 21 34 36 46 27 37 33 37 39 33 45 49 44 41 41 36 28 15 3 350 344
173 162 157 157 146 136 128 139 144 134 128 120 119 117 117 118 119 118 99 55 7 9 21 37 35 44 49 43 17 17 38 38 49 50 54 59 50 45 44 38 30 23 13
159 154 154 155 143 132 124 120 126 124 121 116 109 101 100 102 107 104 96 49 7 25 35 50 44 50 35 24 3 342 11 33 40 63 74 74 68 59 49 46 41 31 21
157 153 146 137 133 126 117 110 111 117 114 111 103 95 92 89 96 97 94 57 44 48 33 41 55 55 29 1 340 350 342 4 30 79 78 78 76 70 59 48 39 30 21
148 150 142 132 124 115 101 96 84 85 84 85 85 84 85 80 80 87 75 48 54 61 36 50 55 40 36 350 359 10 345 347 41 79 91 75 67 64 59 51 39 30 24
137 141 139 136 132 121 114 115 117 108 96 88 87 86 80 73 77 83 73 46 55 70 52 64 77 56 29 19 41 11 353 5 29 46 78 75 58 50 48 44 40 35 18
155 150 140 142 139 134 132 128 133 134 124 116 101 80 83 76 67 83 81 57 54 71 43 58 94 103 35 41 75 84 351 335 344 352 11 78 53 29 26 13 23 27 10
167 169 161 151 141 138 131 113 102 81 72 72 75 62 64 77 69 84 95 94 78 96 83 45 125 141 173 350 83 138 160 238 295 309 307 339 347 339 329 336 341 338 341
185 169 154 149 142 144 138 139 142 149 161 195 177 154 91 82 85 82 85 103 100 87 89 13 85 171 164 200 269 321 200 180 188 289 303 311 314 298 281 297 300 302 313
174 162 154 141 137 136 140 149 148 149 160 145 122 128 107 76 91 99 104 106 95 80 81 39 31 116 169 190 199 211 260 276 195 206 268 294 302 276 268 255 249 269 282
148 146 141 137 139 145 138 137 149 158 157 149 164 188 197 187 91 123 124 128 137 140 190 211 213 161 185 190 201 194 197 207 220 209 244 278 283 277 271 252 234 245 268
Height
1523 1525 1527 1528 1529 1530 1531 1532 1532 1533 1534 1534 1535 1535 1536 1536 1537 1537 1538 1538 1539 1539 1539 1540 1540 1540 1540 1540 1540 1540 1540 1540 1541 1541 1541 1541 1541 1541 1540 1540 1540 1540 1539
1521 1524 1526 1527 1529 1530 1530 1531 1532 1533 1533 1534 1534 1535 1535 1536 1536 1537 1537 1538 1538 1539 1539 1539 1539 1540 1540 1540 1540 1540 1540 1540 1540 1541 1541 1541 1541 1541 1541 1541 1540 1540 1540
1521 1523 1525 1526 1528 1529 1530 1531 1531 1532 1533 1533 1534 1534 1535 1535 1536 1536 1537 1537 1538 1538 1539 1539 1539 1539 1539 1539 1540 1540 1540 1540 1540 1540 1541 1541 1541 1541 1541 1541 1541 1540 1540
1521 1523 1524 1526 1527 1528 1529 1530 1531 1531 1532 1533 1533 1534 1535 1535 1535 1536 1536 1537 1537 1538 1538 1538 1538 1538 1539 1539 1539 1539 1539 1539 1539 1540 1540 1540 1540 1540 1540 1540 1540 1540 1540
1521 1523 1524 1526 1527 1528 1528 1529 1530 1531 1531 1532 1533 1533 1534 1534 1535 1535 1536 1536 1537 1537 1537 1538 1538 1538 1538 1538 1538 1539 1539 1539 1539 1539 1539 1539 1540 1540 1540 1540 1540 1540 1540
1521 1522 1524 1525 1526 1527 1528 1528 1529 1530 1531 1531 1532 1533 1533 1534 1534 1535 1535 1536 1536 1536 1537 1537 1537 1537 1537 1537 1537 1538 1538 1538 1538 1538 1539 1539 1539 1539 1539 1539 1539 1539 1539
1520 1522 1523 1524 1525 1526 1527 1528 1528 1529 1530 1530 1531 1532 1533 1533 1534 1534 1535 1535 1535 1536 1536 1536 1536 1536 1536 1537 1537 1537 1537 1537 1537 1537 1538 1538 1538 1538 1538 1538 1538 1538 1538
1519 1521 1522 1523 1524 1525 1526 1527 1527 1528 1529 1530 1530 1531 1532 1532 1533 1533 1534 1534 1535 1535 1535 1535 1535 1535 1536 1536 1536 1536 1536 1536 1536 1536 1536 1537 1537 1537 1537 1537 1537 1537 1536
1519 1520 1521 1522 1523 1524 1525 1525 1526 1527 1528 1529 1529 1530 1531 1532 1532 1533 1533 1534 1534 1534 1534 1534 1535 1535 1535 1535 1535 1535 1535 1535 1535 1535 1535 1535 1536 1536 1535 1535 1535 1535 1535
1518 1518 1519 1520 1521 1522 1523 1524 1525 1526 1527 1528 1528 1529 1530 1531 1531 1532 1532 1533 1533 1533 1533 1533 1534 1534 1534 1534 1534 1534 1534 1534 1534 1534 1534 1534 1534 1534 1534 1533 1533 1533 1533
1516 1517 1517 1518 1519 1520 1521 1522 1523 1525 1526 1526 1527 1528 1529 1530 1530 1531 1531 1532 1532 1532 1532 1532 1532 1532 1533 1533 1533 1533 1533 1532 1532 1532 1532 1532 1532 1532 1532 1532 1532 1531 1531
1513 1515 1516 1517 1518 1519 1519 1520 1521 1523 1524 1525 1526 1527 1527 1528 1529 1530 1530 1530 1531 1531 1531 1531 1531 1531 1531 1531 1531 1531 1531 1531 1531 1531 1531 1531 1531 1531 1530 1530 1530 1529 1529
1512 1513 1514 1515 1516 1517 1517 1519 1519 1521 1522 1523 1524 1525 1526 1527 1528 1528 1529 1529 1529 1530 1530 1530 1530 1530 1530 1530 1530 1530 1529 1529 1529 1529 1529 1529 1529 1529 1528 1528 1528 1528 1527
1510 1511 1512 1513 1514 1515 1516 1517 1517 1519 1520 1521 1522 1524 1524 1525 1526 1526 1527 1528 1528 1528 1528 1528 1528 1528 1528 1528 1528 1528 1528 1528 1527 1527 1527 1527 1527 1527 1526 1526 1526 1525 1525
1507 1509 1510 1511 1512 1513 1514 1515 1516 1517 1518 1519 1521 1522 1523 1524 1524 1525 1525 1526 1526 1526 1526 1526 1526 1526 1526 1526 1526 1526 1526 1526 1526 1525 1525 1525 1525 1525 1524 1524 1523 1523 1523
1505 1506 1508 1509 1511 1512 1512 1514 1514 1515 1517 1518 1519 1520 1521 1522 1523 1523 1523 1524 1524 1524 1524 1524 1524 1524 1524 1524 1524 1524 1524 1524 1524 1523 1523 1523 1523 1522 1522 1522 1521 1521 1520
1503 1504 1506 1507 1509 1510 1510 1512 1512 1514 1515 1516 1517 1518 1519 1520 1521 1521 1522 1522 1522 1522 1522 1522 1522 1522 1522 1522 1522 1522 1522 1522 1521 1521 1521 1521 1520 1520 1520 1519 1519 1518 1518
1500 1502 1504 1505 1506 1507 1507 1509 1510 1512 1513 1515 1516 1516 1517 1518 1518 1519 1520 1520 1520 1520 1520 1519 1519 1520 1520 1520 1520 1519 1519 1520 1519 1519 1519 1518 1518 1518 1517 1517 1516 1516 1515
1499 1499 1501 1503 1504 1505 1506 1508 1509 1510 1512 1513 1514 1515 1515 1516 1516 1517 1517 1517 1518 1518 1517 1517 1517 1517 1517 1517 1517 1517 1517 1517 1517 1517 1517 1516 1516 1516 1515 1515 1514 1513 1513
1497 1498 1499 1501 1502 1503 1504 1505 1507 1508 1509 1511 1512 1513 1513 1514 1514 1514 1515 1515 1515 1515 1515 1515 1515 1515 1515 1515 1515 1515 1515 1515 1515 1515 1515 1514 1514 1514 1513 1512 1512 1511 1510
1496 1497 1498 1499 1500 1501 1502 1503 1505 1506 1507 1508 1509 1510 1511 1511 1512 1512 1512 1512 1513 1513 1513 1513 1513 1512 1512 1513 1513 1512 1513 1513 1512 1512 1512 1512 1512 1511 1511 1510 1509 1508 1508
1495 1496 1497 1498 1498 1499 1500 1502 1503 1504 1505 1506 1507 1507 1508 1509 1510 1510 1510 1510 1510 1510 1510 1510 1510 1510 1510 1510 1511 1510 1510 1511 1510 1510 1510 1509 1509 1509 1508 1507 1507 1506 1505
1494 1495 1495 1496 1497 1498 1499 1500 1501 1502 1503 1504 1504 1505 1506 1506 1507 1507 1508 1508 1508 1508 1508 1508 1508 1507 1507 1508 1509 1509 1508 1507 1507 1506 1506 1506 1506 1506 1505 1505 1504 1503 1502
1492 1494 1495 1495 1496 1497 1498 1499 1499 1500 1501 1501 1502 1503 1503 1504 1505 1505 1505 1506 1505 1505 1505 1505 1505 1505 1505 1505 1505 1506 1506 1505 1505 1503 1503 1503 1503 1503 1502 1501 1500 1499 1498
1491 1492 1494 1494 1495 1496 1496 1497 1498 1499 1499 1500 1500 1501 1501 1502 1502 1502 1503 1503 1503 1503 1502 1503 1503 1503 1502 1502 1502 1503 1502 1502 1502 1501 1499 1499 1499 1499 1498 1497 1496 1496 1495
1490 1491 1492 1493 1494 1495 1495 1496 1496 1497 1497 1498 1498 1499 1499 1499 1500 1500 1500 1500 1500 1500 1500 1500 1500 1500 1500 1500 1499 1499 1499 1499 1498 1497 1496 1494 1494 1494 1494 1493 1492 1492 1491